Вернуться в каталог

STARLINK-30897

АктивенСвязьVLEO
NORAD 58360·PAYLOAD·🇺🇸 United States

Запущен Nov 18, 2023 с Cape Canaveral Space Force Station

Loading…

Ближайшие Пролёты (ближайшие 24 часа)

TLE

СвежийSource: CelesTrak SupGP

Эпоха: Sep 15, 2026, 03:06 UTC

1 58360C 23177K   26258.12965278 -.00109590  00000+0 -39724-2 0  2585
2 58360  43.0040  15.3898 0001694 253.7626 254.8724 15.27607866    11

Отслеживайте STARLINK-30897 в реальном времени с AllMySat

Download on the App Store